Location: Arboyeti
(42.1122°N, 44.6017°E)
Time: 21:13:31
(UTC+00:00)

Helios 1B rocket - Pass Details

Date: 19 April 2021
Orbit: 575 x 581 km, 98.2° (Epoch: 17 May)

Event Time Altitude Azimuth Distance (km) Brightness Sun altitude
Rises 23:29:22 0° 360° (N) 2,808 6.6 -26.4°
Reaches altitude 10° 23:31:49 10° 347° (NNW) 1,905 5.5 -26.1°
Enters shadow 23:33:42 20° 324° (NW) 1,373 4.4 -25.9°
